UNAMSAT

Satellite information

Favourite Embed

Satellite Type and Status

PAYLOADIN ORBIT

Key statistics

Satellite UNAMSAT at a glance.

Uptime

10533

Days in orbit

Revolutions

≈ 13.7

Per day

Orbit

LEO

Low Earth Orbit

Inclination

82.9

Latest

Satellite identification and parameters

Extended collection of information and parameters for UNAMSAT.

Object identification

Identified? True

Debris? False

Object name: UNAMSAT

International designator: 1996-052B

Object number (NORAD): 24305

Object ID (CCSDS): 24305

Country: MEXICO (MEX)

Current information (Y/N): Y

RCS size: MEDIUM

Orbital parameters

Period: 104.8 minutes

Inclination: 82.9387 deg

SMA: 7363.222 km

Apoapsis: 1008.084 km

Periapsis: 962.09 km

RAAN: 335.049 deg

Eccentricy: 0.0031232

Argument of periapsis: 129.167 deg

Mean anomaly: 231.2268 deg

Mean motion: 13.74044854 rev/day

Mean motion (dot): 0.00000042 rev/day2

B* drag term: 0.000027653 1/REarth

Two-line elements (TLE)

Creation date: July 8, 2025, 2:27 a.m.

Reference frame: TEME

Reference center: EARTH

Epoch: July 7, 2025, 9 p.m. UTC

TLE line 0: 0 UNAMSAT

TLE line 1: 1 24305U 96052B 25188.87522841 .00000042 00000-0 27653-4 0 9990

TLE line 2: 2 24305 82.9387 335.0490 0031232 129.1670 231.2268 13.74044854445337

Live tracking on map

Real-time ground track for satellite UNAMSAT.

In-orbit conjunctions

A list of the most updated potential collisions computed for object UNAMSAT.

Target Orbit TCA Probability of collision Miss distance Type
FENGYUN 1C DEB SSO 2025-06-03 18:00:54 0.0002584965 99.0 (m) DEBRIS
COSMOS 1275 DEB LEO 2024-11-20 23:37:51 0.0002421571 49.0 (m) DEBRIS
THORAD AGENA D DEB SSO 2024-10-13 04:52:16 0.000242951 220.0 (m) DEBRIS

Associated space launch

Navigation satellite providing location information for the Tsiklon-B navigation system

UNAMSAT was lifted into orbit during the mission ‘Kosmos-3M | Parus 86’, on board a Kosmos-3M space rocket.

The launch took place on Sept. 5, 1996, 12:47 p.m. from 132/1 (132L).

For more information about the launch, click the button.

Launch to space Kosmos-3M | Parus 86
Kosmos-3M | Parus 86

Agency: N/A

Status: Launch Successful

Launch date: Sept. 5, 1996, 12:47 p.m. UTC

Rocket: Kosmos-3M

Launch pad: 132/1 (132L)

Location: Plesetsk Cosmodrome, Russian Federation

...

Latest news about this satellite

There are no fresh news available about this satellite. Check back as we update our databases every day.


Newsletter sign-up

Weekly statistics, charts and insights to help you stay on top of the space industry.